Location: Unspecified
(31.3380°N, 0.0000°E)
Time: 14:09:49
(UTC+00:00)

FREGAT DEB - Visible Passes

Search period start: 04 April 2026 00:00
Search period end: 14 April 2026 00:00
Orbit: 616 x 799 km, 98.1° (Epoch: 29 March)

Date Brightness Start Highest point End Pass type
(mag) Time Alt. Az. Time Alt. Az. Time Alt. Az.
4 Apr ? 04:26:50 10° N 04:32:07 82° WNW 04:37:14 10° SSW visible
5 Apr ? 03:34:04 10° NE 03:38:29 27° E 03:42:46 10° SSE visible
5 Apr ? 05:11:44 10° NNW 05:16:11 28° WNW 05:20:31 10° SW visible
6 Apr ? 04:17:39 10° NNE 04:22:55 81° ESE 04:27:59 10° S visible
7 Apr ? 03:25:15 10° NE 03:29:12 22° E 03:33:02 10° SE visible
7 Apr ? 05:02:20 10° N 05:07:02 35° WNW 05:11:36 10° SW visible
8 Apr ? 04:08:30 10° NNE 04:13:42 64° E 04:18:40 10° S visible
9 Apr ? 03:16:34 10° NE 03:19:54 17° E 03:23:08 10° SE visible
9 Apr ? 04:52:58 10° N 04:57:52 43° WNW 05:02:35 10° SW visible
10 Apr ? 03:59:23 10° NNE 04:04:26 51° E 04:09:16 10° S visible
11 Apr ? 03:08:09 10° ENE 03:10:33 13° E 03:12:55 10° ESE visible
11 Apr ? 04:43:38 10° N 04:48:41 53° WNW 04:53:30 10° SSW visible
12 Apr ? 03:50:20 10° NNE 03:55:10 40° E 03:59:46 10° SSE visible
13 Apr ? 04:34:22 10° N 04:39:28 67° WNW 04:44:19 10° SSW visible
